Saltillo, Mexico

5:51 PM CST on March 30, 2017 (GMT -0600)
Plan De Guadalupe International

Weather History for MMIO - January, 2013

Change the Weather History Date:

Friday, January 18, 2013

  Actual Average Record
Temperature  
Mean Temperature 38 °F -  
Max Temperature 54 °F 64 °F 82 °F (2011)
Min Temperature 23 °F 44 °F 23 °F (2013)
Degree Days  
Heating Degree Days 26    
Moisture  
Dew Point 31 °F    
Average Humidity 57    
Maximum Humidity 87    
Minimum Humidity 29    
Precipitation  
Precipitation 0.00 in - - ()
Sea Level Pressure  
Sea Level Pressure 30.37 in    
Wind  
Wind Speed 4 mph ()    
Max Wind Speed 13 mph    
Max Gust Speed -    
Visibility 8.7 miles    
Events      
Averages and records for this station are not official NWS values.
T = Trace of Precipitation, MM = Missing Value Source: Averaged Metar Reports

Daily Weather History Graph

Daily Weather History Graph

Search for Another Location

Airport or City:

Trip Planner

Search our weather history database for the weather conditions in past years. The results will help you decide how hot, cold, wet, or windy it might be!

Date:

Astronomy

Jan. 18, 2013 Rise Set
Actual Time 7:31 AM CST 6:18 PM CST
Civil Twilight 7:06 AM CST 6:42 PM CST
Nautical Twilight 6:38 AM CST 7:10 PM CST
Astronomical Twilight 6:11 AM CST 7:38 PM CST
Moon 12:01 PM CST (1/18) 12:22 AM CST (1/18)
Length of Visible Light 11h 35m
Length of Day
10h 46m
Waxing Crescent, 47% of the Moon is Illuminated
Jan 18
Waxing Crescent
Jan 18
First Quarter
Jan 26
Full
Feb 3
Last Quarter
Feb 10
New

Hourly Weather History & Observations

Time (CST) Temp. Windchill Dew Point Humidity Pressure Visibility Wind Dir Wind Speed Gust Speed Precip Events Conditions
12:40 AM 42.8 °F 38.6 °F 28.4 °F 57% 30.42 in 10.0 mi North 6.9 mph - N/A   Scattered Clouds
2:30 AM 28 °F - 19 °F 59% 30.47 in 3 mi SSE 2.2 mph - -   Haze
5:30 AM 26 °F - 19 °F 67% 30.50 in 3 mi South 2.2 mph - -   Partly Cloudy
6:40 AM 32.0 °F - 26.6 °F 80% 30.41 in 10.0 mi Calm Calm - N/A   Clear
7:40 AM 32.0 °F - 28.4 °F 87% 30.42 in 10.0 mi Calm Calm - N/A   Scattered Clouds
8:40 AM 37.4 °F - 32.0 °F 81% 30.44 in 10.0 mi Calm Calm - N/A   Scattered Clouds
9:00 AM 31 °F - 22 °F 59% 30.56 in 9 mi SE 2.2 mph - -   Scattered Clouds
9:40 AM 44.6 °F - 28.4 °F 53% 30.45 in 10.0 mi Calm Calm - N/A   Scattered Clouds
10:40 AM 51.8 °F - 33.8 °F 50% 30.46 in 10.0 mi North 12.7 mph - N/A   Scattered Clouds
11:30 AM 49 °F - 27 °F 30% 30.52 in 9 mi North 4.5 mph - -   Haze
11:40 AM 55.4 °F - 33.8 °F 44% 30.42 in 10.0 mi NNE 9.2 mph - N/A   Scattered Clouds
12:40 PM 55.4 °F - 33.8 °F 44% 30.37 in 10.0 mi North 5.8 mph - N/A   Scattered Clouds
1:40 PM 55.4 °F - 39.2 °F 54% 30.34 in 10.0 mi ENE 12.7 mph - N/A   Mostly Cloudy
2:30 PM 49 °F - 27 °F 29% 30.36 in 7 mi North 4.5 mph - -   Haze
2:40 PM 55.4 °F - 39.2 °F 54% 30.31 in 10.0 mi NNE 9.2 mph - N/A   Mostly Cloudy
3:40 PM 55.4 °F - 39.2 °F 54% 30.30 in 10.0 mi North 11.5 mph - N/A   Mostly Cloudy
4:40 PM 53.6 °F - 35.6 °F 51% 30.30 in 10.0 mi NE 9.2 mph - N/A   Mostly Cloudy
5:30 PM 49 °F - 28 °F 31% 30.28 in 7 mi SE 4.5 mph - -   Haze
5:40 PM 51.8 °F - 35.6 °F 54% 30.30 in 10.0 mi NNE 9.2 mph - N/A   Mostly Cloudy
6:40 PM 48.2 °F - 33.8 °F 58% 30.32 in 10.0 mi North 9.2 mph - N/A   Mostly Cloudy
7:40 PM 46.4 °F 42.9 °F 33.8 °F 62% 30.33 in 10.0 mi NNE 6.9 mph - N/A   Scattered Clouds
8:30 PM 40 °F - 28 °F 51% 30.26 in 3 mi SSE 2.2 mph - -   Haze
8:40 PM 44.6 °F - 32.0 °F 61% 30.33 in 10.0 mi Calm Calm - N/A   Scattered Clouds
9:40 PM 42.8 °F - 32.0 °F 66% 30.33 in 10.0 mi Calm Calm - N/A   Scattered Clouds
10:40 PM 42.8 °F - 32.0 °F 66% 30.33 in 10.0 mi Calm Calm - N/A   Scattered Clouds
11:30 PM 36 °F - 27 °F 58% 30.25 in 3 mi WSW 2.2 mph - -   Haze
11:40 PM 42.8 °F - 32.0 °F 66% 30.31 in 10.0 mi Calm Calm - N/A   Scattered Clouds